Torna al catalogo

COSMOS 1275 DEB

AttivoPO
NORAD 12741·DEBRIS·🇷🇺 Russia

Lanciato Jun 4, 1981 da Plesetsk Cosmodrome

Loading…

Prossimi Passaggi (prossime 24 ore)

TLE

AggiornatoSource: Space-Track

Epoca: Sep 14, 2026, 10:57 UTC

1 12741U 81053CJ  26257.45668494  .00000449  00000-0  34175-3 0  9990
2 12741  82.9444  63.0718 0066040 173.6791 215.7040 13.90573215273268

Traccia COSMOS 1275 DEB in tempo reale con AllMySat

Download on the App Store